When you browse on this site, cookies collect data to enhance your experience and personalize the content and advertising you see.
Visit our Privacy Policy to learn more. By continuing to use the site, you agree to this use of cookies and data.
  • en France
  • Liste des pays
  • À 7 jours
  • Température de l'eau
  • Carte météo
  • Widgets météo
  • user-avatar
    Se connecter

    Météo par heure à Abbeville

    Ce jour, 18 Septembre, Mercredi

    Heure Température Précipitation Vent Pression Humidité
    00:00 +10°C° 0 mm 3 m/s 767 mmHg 86%
    01:00 +9°C° 0 mm 3 m/s 767 mmHg 87%
    02:00 +9°C° 0 mm 3 m/s 767 mmHg 87%
    03:00 +9°C° 0 mm 3 m/s 767 mmHg 87%
    04:00 +9°C° 0 mm 3 m/s 767 mmHg 87%
    05:00 +9°C° 0 mm 3 m/s 768 mmHg 86%
    06:00 +8°C° 0 mm 3 m/s 768 mmHg 86%
    07:00 +10°C° 0 mm 3 m/s 768 mmHg 77%
    08:00 +12°C° 0 mm 4 m/s 768 mmHg 69%
    09:00 +15°C° 0 mm 5 m/s 768 mmHg 60%
    10:00 +15°C° 0 mm 5 m/s 768 mmHg 57%
    11:00 +16°C° 0 mm 5 m/s 768 mmHg 54%
    12:00 +17°C° 0 mm 5 m/s 768 mmHg 50%
    13:00 +19°C° 0 mm 5 m/s 768 mmHg 50%
    14:00 +19°C° 0 mm 5 m/s 768 mmHg 50%
    15:00 +19°C° 0 mm 5 m/s 768 mmHg 49%
    16:00 +16°C° 0 mm 5 m/s 768 mmHg 54%
    17:00 +15°C° 0 mm 5 m/s 768 mmHg 59%
    18:00 +13°C° 0 mm 5 m/s 767 mmHg 64%
    19:00 +12°C° 0 mm 5 m/s 768 mmHg 67%
    20:00 +11°C° 0 mm 4 m/s 769 mmHg 70%
    21:00 +11°C° 0 mm 4 m/s 769 mmHg 73%
    22:00 +10°C° 0 mm 4 m/s 769 mmHg 76%
    23:00 +10°C° 0 mm 4 m/s 769 mmHg 78%

    Demain, 19 Septembre, Jeudi

    Heure Température Précipitation Vent Pression Humidité
    00:00 +9°C° 0 mm 3 m/s 769 mmHg 80%
    01:00 +9°C° 0 mm 3 m/s 769 mmHg 82%
    02:00 +9°C° 0 mm 3 m/s 769 mmHg 85%
    03:00 +8°C° 0 mm 3 m/s 769 mmHg 87%
    04:00 +8°C° 0 mm 3 m/s 769 mmHg 87%
    05:00 +8°C° 0 mm 3 m/s 769 mmHg 88%
    06:00 +8°C° 0 mm 3 m/s 769 mmHg 88%
    07:00 +10°C° 0 mm 3 m/s 769 mmHg 78%
    08:00 +12°C° 0 mm 4 m/s 770 mmHg 69%
    09:00 +14°C° 0 mm 5 m/s 770 mmHg 60%
    10:00 +15°C° 0 mm 5 m/s 770 mmHg 57%
    11:00 +16°C° 0 mm 5 m/s 770 mmHg 54%
    12:00 +17°C° 0 mm 6 m/s 769 mmHg 52%
    13:00 +19°C° 0 mm 5 m/s 769 mmHg 51%
    14:00 +19°C° 0 mm 5 m/s 769 mmHg 51%
    15:00 +19°C° 0 mm 5 m/s 768 mmHg 50%
    16:00 +17°C° 0 mm 5 m/s 768 mmHg 55%
    17:00 +15°C° 0 mm 4 m/s 768 mmHg 60%
    18:00 +14°C° 0 mm 4 m/s 768 mmHg 66%
    19:00 +13°C° 0 mm 4 m/s 768 mmHg 68%
    20:00 +12°C° 0 mm 4 m/s 768 mmHg 71%
    21:00 +11°C° 0 mm 4 m/s 769 mmHg 73%
    22:00 +11°C° 0 mm 4 m/s 768 mmHg 72%
    23:00 +10°C° 0 mm 4 m/s 768 mmHg 71%

    Après-demain, 20 Septembre, Vendredi

    Heure Température Précipitation Vent Pression Humidité
    00:00 +10°C° 0 mm 4 m/s 768 mmHg 70%
    01:00 +8°C° 0 mm 4 m/s 768 mmHg 71%
    02:00 +8°C° 0 mm 4 m/s 767 mmHg 72%
    03:00 +8°C° 0 mm 4 m/s 767 mmHg 72%
    04:00 +7°C° 0 mm 4 m/s 767 mmHg 72%
    05:00 +7°C° 0 mm 4 m/s 767 mmHg 72%
    06:00 +7°C° 0 mm 4 m/s 766 mmHg 72%
    07:00 +9°C° 0 mm 5 m/s 766 mmHg 64%
    08:00 +11°C° 0 mm 6 m/s 766 mmHg 55%
    09:00 +15°C° 0 mm 6 m/s 766 mmHg 47%
    10:00 +16°C° 0 mm 6 m/s 765 mmHg 43%
    11:00 +18°C° 0 mm 7 m/s 765 mmHg 38%
    12:00 +21°C° 0 mm 7 m/s 764 mmHg 34%
    13:00 +21°C° 0 mm 7 m/s 764 mmHg 34%
    14:00 +21°C° 0 mm 7 m/s 763 mmHg 34%
    15:00 +22°C° 0 mm 7 m/s 762 mmHg 34%
    16:00 +20°C° 0 mm 6 m/s 762 mmHg 38%
    17:00 +19°C° 0 mm 5 m/s 762 mmHg 42%
    18:00 +16°C° 0 mm 5 m/s 761 mmHg 47%
    19:00 +15°C° 0 mm 5 m/s 761 mmHg 47%
    20:00 +15°C° 0 mm 6 m/s 761 mmHg 47%
    21:00 +14°C° 0 mm 6 m/s 761 mmHg 48%
    22:00 +13°C° 0 mm 6 m/s 760 mmHg 50%
    23:00 +13°C° 0 mm 6 m/s 760 mmHg 52%

    21 Septembre, Samedi

    Heure Température Précipitation Vent Pression Humidité
    00:00 +11°C° 0 mm 6 m/s 759 mmHg 54%
    01:00 +10°C° 0 mm 6 m/s 759 mmHg 56%
    02:00 +10°C° 0 mm 5 m/s 759 mmHg 58%
    03:00 +9°C° 0 mm 5 m/s 758 mmHg 61%
    04:00 +9°C° 0 mm 5 m/s 758 mmHg 62%
    05:00 +9°C° 0 mm 5 m/s 758 mmHg 64%
    06:00 +9°C° 0 mm 5 m/s 757 mmHg 65%
    07:00 +12°C° 0 mm 5 m/s 757 mmHg 63%
    08:00 +14°C° 0 mm 5 m/s 757 mmHg 60%
    09:00 +17°C° 0 mm 5 m/s 757 mmHg 58%
    10:00 +20°C° 0 mm 5 m/s 757 mmHg 55%
    11:00 +22°C° 0 mm 5 m/s 756 mmHg 53%
    12:00 +25°C° 0 mm 5 m/s 756 mmHg 51%
    13:00 +26°C° 0 mm 5 m/s 755 mmHg 50%
    14:00 +27°C° 0 mm 5 m/s 754 mmHg 50%
    15:00 +28°C° 0 mm 5 m/s 754 mmHg 49%
    16:00 +26°C° 0 mm 4 m/s 753 mmHg 54%
    17:00 +25°C° 0 mm 4 m/s 753 mmHg 59%
    18:00 +22°C° 0 mm 3 m/s 753 mmHg 64%
    19:00 +21°C° 0 mm 3 m/s 753 mmHg 67%
    20:00 +21°C° 0 mm 3 m/s 753 mmHg 70%
    21:00 +20°C° 0 mm 4 m/s 753 mmHg 72%
    22:00 +20°C° 0.4 mm 4 m/s 753 mmHg 78%
    23:00 +19°C° 0.4 mm 4 m/s 753 mmHg 83%

    22 Septembre, Dimanche

    Heure Température Précipitation Vent Pression Humidité
    00:00 +19°C° 0.4 mm 5 m/s 753 mmHg 89%
    01:00 +19°C° 0.5 mm 5 m/s 752 mmHg 89%
    02:00 +19°C° 0.5 mm 5 m/s 752 mmHg 90%
    03:00 +19°C° 0.5 mm 5 m/s 752 mmHg 91%
    04:00 +17°C° 0 mm 5 m/s 752 mmHg 92%
    05:00 +17°C° 0 mm 5 m/s 752 mmHg 93%
    06:00 +16°C° 0 mm 5 m/s 752 mmHg 94%
    07:00 +17°C° 0.4 mm 5 m/s 752 mmHg 92%
    08:00 +17°C° 0.4 mm 5 m/s 752 mmHg 91%
    09:00 +17°C° 0.4 mm 5 m/s 753 mmHg 89%
    10:00 +19°C° 0 mm 5 m/s 753 mmHg 85%
    11:00 +19°C° 0 mm 4 m/s 753 mmHg 80%
    12:00 +19°C° 0 mm 4 m/s 754 mmHg 76%
    13:00 +20°C° 0 mm 4 m/s 754 mmHg 71%
    14:00 +21°C° 0 mm 4 m/s 754 mmHg 67%
    15:00 +22°C° 0 mm 4 m/s 754 mmHg 62%
    16:00 +20°C° 0.4 mm 4 m/s 754 mmHg 66%
    17:00 +19°C° 0.4 mm 4 m/s 754 mmHg 70%
    18:00 +18°C° 0.4 mm 4 m/s 754 mmHg 74%
    19:00 +17°C° 0.1 mm 4 m/s 755 mmHg 77%
    20:00 +15°C° 0.1 mm 4 m/s 755 mmHg 80%
    21:00 +14°C° 0.1 mm 4 m/s 755 mmHg 83%
    22:00 +14°C° 0 mm 4 m/s 756 mmHg 84%
    23:00 +13°C° 0 mm 5 m/s 756 mmHg 86%

    23 Septembre, Lundi

    Heure Température Précipitation Vent Pression Humidité
    00:00 +13°C° 0 mm 5 m/s 756 mmHg 87%
    01:00 +13°C° 0.1 mm 5 m/s 756 mmHg 87%
    02:00 +11°C° 0.1 mm 6 m/s 757 mmHg 88%
    03:00 +11°C° 0.1 mm 6 m/s 757 mmHg 88%
    04:00 +11°C° 0.1 mm 6 m/s 757 mmHg 88%
    05:00 +11°C° 0.1 mm 6 m/s 758 mmHg 88%
    06:00 +11°C° 0.1 mm 6 m/s 758 mmHg 88%
    07:00 +13°C° 0 mm 6 m/s 758 mmHg 82%
    08:00 +15°C° 0 mm 6 m/s 759 mmHg 75%
    09:00 +16°C° 0 mm 6 m/s 759 mmHg 69%
    10:00 +17°C° 0 mm 6 m/s 759 mmHg 64%
    11:00 +19°C° 0 mm 6 m/s 759 mmHg 60%
    12:00 +19°C° 0 mm 5 m/s 759 mmHg 56%
    13:00 +19°C° 0 mm 5 m/s 759 mmHg 55%
    14:00 +19°C° 0 mm 5 m/s 759 mmHg 54%
    15:00 +19°C° 0 mm 5 m/s 759 mmHg 53%
    16:00 +18°C° 0 mm 4 m/s 759 mmHg 57%
    17:00 +17°C° 0 mm 3 m/s 759 mmHg 62%
    18:00 +16°C° 0 mm 3 m/s 759 mmHg 67%
    19:00 +15°C° 0.5 mm 4 m/s 759 mmHg 75%
    20:00 +15°C° 0.5 mm 5 m/s 759 mmHg 83%
    21:00 +14°C° 0.5 mm 5 m/s 759 mmHg 91%
    22:00 +15°C° 1 mm 6 m/s 758 mmHg 92%
    23:00 +16°C° 1 mm 6 m/s 758 mmHg 92%
    Voir plus